Address 0x156f04af1a796d1b9fca58b5112722d0de0f347f 14

Txn Hash Method
Block
From
To
Value [Txn Fee]
0xd99443df978b3cef841d3a004b774f382e6848b4b17ffcbd50c3122e297045d7Move To95976312022-05-12 14:01:2016 days 44 mins ago0x156f04af1a796d1b9fca58b5112722d0de0f347fOUT 0x61a0781a6f5c15ca94828662d46107431aaf63910.408515621947396 AVAX0.0066841215 26.5
0xb95139730febd022c76cbece6787e0964010ecb21894186dc44a5802f05bc9b3Approve95976132022-05-12 14:00:4416 days 45 mins ago0x156f04af1a796d1b9fca58b5112722d0de0f347fOUT 0xf5de760f2e916647fd766b4ad9e85ff943ce3a2b0 AVAX0.00133444565 27.425
0xef185f2d93fefa0713d13f1b821b5c868d325c61894b8f084488ad37c0179f71Move To95974182022-05-12 13:53:3916 days 52 mins ago0x156f04af1a796d1b9fca58b5112722d0de0f347fOUT 0x61a0781a6f5c15ca94828662d46107431aaf63910.41566076505176 AVAX0.0066841215 26.5
0x3c8e1f2559198c50dcc28220386d8f539ec008758083f93725476a18b2fca81eApprove95974112022-05-12 13:53:2216 days 52 mins ago0x156f04af1a796d1b9fca58b5112722d0de0f347fOUT 0xf5de760f2e916647fd766b4ad9e85ff943ce3a2b0 AVAX0.00131084652 26.94
0x291d900902fe82a67d65bc4ef5db2b16ceea73d041992cf9b69799924cca2040Move To95972122022-05-12 13:46:2216 days 59 mins ago0x156f04af1a796d1b9fca58b5112722d0de0f347fOUT 0x61a0781a6f5c15ca94828662d46107431aaf63910.41566076505176 AVAX0.0066841215 26.5
0x33b075986dabc674ee9a0f3f2ad1a00ad2963a463da9fea5518115964dc38844Approve95971972022-05-12 13:45:5016 days 1 hr ago0x156f04af1a796d1b9fca58b5112722d0de0f347fOUT 0xf5de760f2e916647fd766b4ad9e85ff943ce3a2b0 AVAX0.001289437 26.5
0x0257fd12e80509b12cfc72b6cb5a5bad04c11cbf677c431add10421475470180Move To95969842022-05-12 13:38:3216 days 1 hr ago0x156f04af1a796d1b9fca58b5112722d0de0f347fOUT 0x61a0781a6f5c15ca94828662d46107431aaf63910.41566076505176 AVAX0.00679510314 26.94
0xe6ac1f7abeb3afef8d1057156b835e4fec081a7e21a3379bae393987ba2ecd63Approve95969692022-05-12 13:38:0216 days 1 hr ago0x156f04af1a796d1b9fca58b5112722d0de0f347fOUT 0xf5de760f2e916647fd766b4ad9e85ff943ce3a2b0 AVAX0.001289437 26.5
0x35452e0b815b2bbddec830f03aaf1b1d452c2fdba4259e20900d9eadd653883dMove To95968152022-05-12 13:32:4716 days 1 hr ago0x156f04af1a796d1b9fca58b5112722d0de0f347fOUT 0x61a0781a6f5c15ca94828662d46107431aaf63910.412909605870956 AVAX0.0066841215 26.5
0xff57cf8fb68f5b47148d1c95bbea9051a6aed6936effe1e5888cc703af92838cApprove95968032022-05-12 13:32:2316 days 1 hr ago0x156f04af1a796d1b9fca58b5112722d0de0f347fOUT 0xf5de760f2e916647fd766b4ad9e85ff943ce3a2b0 AVAX0.001289437 26.5
0x189ca7e03b3a028935609bc1552f2132adf73ecbfb5b3b9d42acf4784f7c7e1dMove To95966502022-05-12 13:27:0616 days 1 hr ago0x156f04af1a796d1b9fca58b5112722d0de0f347fOUT 0x9050bc437605b79d2a9ee1161000c7947187cd740.249985959183789 AVAX0.00787744458 26.94
0x0dab50bff345a9148070c8c6faec6d4a8247045a8b3d7467211f524fa49213fd0xdb8a52ae92654552022-05-04 0:34:2024 days 14 hrs ago0x156f04af1a796d1b9fca58b5112722d0de0f347fOUT0xfed58cf05046c415e68de80c969a3811db3b98e90 AVAX0.014330961175 27.425
0xea44ff8195e2d29ca56ded441136ef1db6fdf00a0f6caef56a348978dc8e35b10xb0755e2e92409302022-05-03 8:29:3725 days 6 hrs ago0x156f04af1a796d1b9fca58b5112722d0de0f347fOUT0xfed58cf05046c415e68de80c969a3811db3b98e90 AVAX0.0173433755 26.5
0x5e0fe2efb5a8ecc307c55a95ebc1303a548a88c5f05607282bfd50526597e0130x7a28648492409082022-05-03 8:28:3625 days 6 hrs ago0x156f04af1a796d1b9fca58b5112722d0de0f347fOUT0xfed58cf05046c415e68de80c969a3811db3b98e90 AVAX0.011742836437 31.0625
0xeba5d65e03b558a1d070100c61550e2766da57796a2f7c2a3a7938f5382bd61b0x62b6889592408782022-05-03 8:27:0125 days 6 hrs ago0x156f04af1a796d1b9fca58b5112722d0de0f347fOUT0xfed58cf05046c415e68de80c969a3811db3b98e90 AVAX0.014891604285 27.35225
0x55908a676d33edf13927621cbc67aea4199f454d627f471feaec42ca1a801e9d0x3951ac5592408432022-05-03 8:25:3725 days 6 hrs ago0x156f04af1a796d1b9fca58b5112722d0de0f347fOUT0xfed58cf05046c415e68de80c969a3811db3b98e90 AVAX0.0175129755 26.5
0x7cc127f478bb02243aa0b5ccdb944899b8ea79011c7613e60873efbe894dae9dApprove92408072022-05-03 8:24:2525 days 6 hrs ago0x156f04af1a796d1b9fca58b5112722d0de0f347fOUT0xcace68663da769267acd0c4b947bd6c2a5e73d1b0 AVAX0.0012351385 26.5
0x90d9d1c84dff320c46f546b811ee8f6577710f77faac1f136b95a0ac7c50e9a50xe2ab691d92407212022-05-03 8:20:5825 days 6 hrs ago0x156f04af1a796d1b9fca58b5112722d0de0f347fOUT0xcace68663da769267acd0c4b947bd6c2a5e73d1b0 AVAX0.0055081575 26.5
0xf6cc325d3deaaca1f12ee8671e7ce97d9dff22ee2ecff03d06d4dc8c4399fa79Approve92406872022-05-03 8:19:4725 days 6 hrs ago0x156f04af1a796d1b9fca58b5112722d0de0f347fOUT0x6398a453f057a7c6b672166033dc19d7331e69d70 AVAX0.001277648475 27.425
0xa5c30376b3be3e64501b820861a5775bf397d790974f23a6049327265973b7e4Transfer92389332022-05-03 7:11:5225 days 7 hrs ago0x572f4d80f10f663b5049f789546f25f70bb62a7f IN 0x156f04af1a796d1b9fca58b5112722d0de0f347f10 AVAX0.0006562531.25
0xd9faf05f970468582365e911a046dc99a65dc78101493fdf7f5321deda83df5f0x84aea70c82247602022-04-06 3:12:2752 days 11 hrs ago0x156f04af1a796d1b9fca58b5112722d0de0f347fOUT0xf86f41b8b40d1d8a5dc6bd1879386b8c32a09aa70 AVAX0.00507529 27.5
0x0682fb963d42ae0e07658b25f17250d2113c04ef95b8bf3e931daf6958ad38b30x88f4b3da82247452022-04-06 3:11:4352 days 11 hrs ago0x156f04af1a796d1b9fca58b5112722d0de0f347fOUT0xf86f41b8b40d1d8a5dc6bd1879386b8c32a09aa70 AVAX0.0037025725 27.5
0x784217ec66e9311edb43cad7d77b35de2239cd46e1b5387f4bcbe5738d346d0a0x88f4b3da82247342022-04-06 3:11:1052 days 11 hrs ago0x156f04af1a796d1b9fca58b5112722d0de0f347fOUT0xf86f41b8b40d1d8a5dc6bd1879386b8c32a09aa70 AVAX0.003562625 27.5
0xbcc5b78af90a288506d3cafcddbba0a9921c7616f025b3c6fce3d16144cbbf590x88f4b3da82247302022-04-06 3:10:5652 days 11 hrs ago0x156f04af1a796d1b9fca58b5112722d0de0f347fOUT0xf86f41b8b40d1d8a5dc6bd1879386b8c32a09aa70 AVAX0.003562625 27.5
0x13f2f0eec5fe8e06c7664d718678aa39e4073fd8af57defba60e51d53d9899bf0x88f4b3da82247182022-04-06 3:10:2352 days 11 hrs ago0x156f04af1a796d1b9fca58b5112722d0de0f347fOUT0xf86f41b8b40d1d8a5dc6bd1879386b8c32a09aa70 AVAX0.003562625 27.5
[ Download CSV Export 
Latest 7 internal transactions
Parent Txn Hash Block From To Value
0xd99443df978b3cef841d3a004b774f382e6848b4b17ffcbd50c3122e297045d795976312022-05-12 14:01:2016 days 44 mins ago 0x0848b8ad17d4003dde1f1b7ef1fdba4b629da97e0x156f04af1a796d1b9fca58b5112722d0de0f347f0.076010256500585804 AVAX
0xef185f2d93fefa0713d13f1b821b5c868d325c61894b8f084488ad37c0179f7195974182022-05-12 13:53:3916 days 52 mins ago 0x0848b8ad17d4003dde1f1b7ef1fdba4b629da97e0x156f04af1a796d1b9fca58b5112722d0de0f347f0.08313215301035203 AVAX
0x291d900902fe82a67d65bc4ef5db2b16ceea73d041992cf9b69799924cca204095972122022-05-12 13:46:2216 days 59 mins ago 0x0848b8ad17d4003dde1f1b7ef1fdba4b629da97e0x156f04af1a796d1b9fca58b5112722d0de0f347f0.08313215301035203 AVAX
0x0257fd12e80509b12cfc72b6cb5a5bad04c11cbf677c431add1042147547018095969842022-05-12 13:38:3216 days 1 hr ago 0x0848b8ad17d4003dde1f1b7ef1fdba4b629da97e0x156f04af1a796d1b9fca58b5112722d0de0f347f0.08313215301035203 AVAX
0x35452e0b815b2bbddec830f03aaf1b1d452c2fdba4259e20900d9eadd653883d95968152022-05-12 13:32:4716 days 1 hr ago 0x0848b8ad17d4003dde1f1b7ef1fdba4b629da97e0x156f04af1a796d1b9fca58b5112722d0de0f347f0.082581921174191385 AVAX
0x189ca7e03b3a028935609bc1552f2132adf73ecbfb5b3b9d42acf4784f7c7e1d95966502022-05-12 13:27:0616 days 1 hr ago 0x0848b8ad17d4003dde1f1b7ef1fdba4b629da97e0x156f04af1a796d1b9fca58b5112722d0de0f347f0.049997191836757996 AVAX
0x51478f6f1c60bee3f77499b0480f62dd11c4efbeabdea48aeca261c766c9163988252262022-04-22 8:14:1836 days 6 hrs ago 0xf5de760f2e916647fd766b4ad9e85ff943ce3a2b0x156f04af1a796d1b9fca58b5112722d0de0f347f0.1 AVAX
[ Download CSV Export 
Loading

Contract Name:
0

Compiler Version
0

Optimization Enabled:
0

Other Settings:
-NA-
Block Transaction Gas Used Reward
Age Block Fee Address BC Fee Address Voting Power Jailed Incoming
Block Uncle Number Difficulty Gas Used Reward
Loading